Flag for France Past Weather in Boulogne-Billancourt, Île-de-France, France — Yesterday and Last 2 Weeks

Now
73 °F

Partly sunny.


Feels Like: 77 °F
Forecast: 58 / 74 °F
Wind: 8 mph from West

Location: Paris-Orly

Current Time: Jul 30, 2016 at 5:06:09 PM

Latest Report: Jul 30, 2016 at 4:30 PM


Visibility: N/A

Pressure: 29.95 "Hg

Humidity: 53%

Dew Point: 55 °F

Location of Boulogne-BillancourtLocation

Past Weather in Boulogne-Billancourt — Graph

°F

Boulogne-Billancourt Temperature Yesterday

Maximum temperature yesterday: 77 °F (at 3:00 PM)
Minimum temperature yesterday: 63 °F (at 11:30 PM)
Average temperature yesterday: 70 °F

High & Low Weather Summary for the Past Weeks

 TemperatureHumidityPressure
High95 °F (Jul 19, 6:00 PM)94% (Jul 24, 6:30 AM)30.36 "Hg (Jul 24, 6:30 AM)
Low55 °F (Jul 27, 4:00 AM)32% (Jul 19, 6:00 PM)29.89 "Hg (Jul 20, 4:00 AM)
Average72 °F64%30.09 "Hg
* Reported Jul 15 4:00 PM — Jul 30 4:00 PM, Boulogne-Billancourt, Weather by CustomWeather, © 2016

Note: Actual official high and low records may vary slightly from our data, if they occured in-between our weather recording intervals... More about our weather records

Advertising

Boulogne-Billancourt Weather History for the Previous 24 Hours

Scroll right to see more
 ConditionsComfort  
Time TempWeatherWind HumidityBarometerVisibility
4:00 PM
Sat, Jul 30
75 °FPartly sunny.8 mph50%29.95 "HgN/A
3:30 PM75 °FPartly sunny.9 mph50%29.95 "HgN/A
3:00 PM73 °FPartly sunny.10 mph53%29.95 "HgN/A
2:30 PM73 °FPartly sunny.7 mph53%29.95 "HgN/A
2:00 PM75 °FBroken clouds.7 mph50%29.95 "HgN/A
1:30 PM73 °FPartly sunny.7 mph53%29.98 "HgN/A
1:00 PM72 °FPartly sunny.8 mph57%29.95 "HgN/A
12:30 PM72 °FBroken clouds.8 mph57%29.98 "HgN/A
12:00 PM72 °FPartly sunny.6 mph57%29.98 "HgN/A
11:30 AM70 °FPartly sunny.7 mph60%29.98 "HgN/A
11:00 AM72 °FBroken clouds.3 mph61%29.95 "HgN/A
10:30 AM70 °FBroken clouds.3 mph60%29.98 "HgN/A
10:00 AM68 °FBroken clouds.2 mph64%29.98 "HgN/A
9:30 AM68 °FPartly sunny.6 mph64%29.98 "HgN/A
9:00 AM68 °FBroken clouds.3 mph64%29.98 "HgN/A
8:30 AM66 °FBroken clouds.3 mph73%29.98 "HgN/A
8:00 AM66 °FBroken clouds.2 mph78%29.98 "HgN/A
7:30 AM63 °FBroken clouds.2 mph88%29.95 "HgN/A
7:00 AM61 °FPassing clouds.3 mph83%29.95 "HgN/A
6:30 AM59 °FPassing clouds.3 mph88%29.95 "HgN/A
6:00 AM59 °FPassing clouds.2 mph88%29.95 "HgN/A
5:30 AM59 °FPassing clouds.3 mph88%29.95 "HgN/A
5:00 AM59 °FPassing clouds.3 mph88%29.95 "HgN/A
4:30 AM61 °FPassing clouds.5 mph88%29.95 "HgN/A
4:00 AM63 °FPassing clouds.5 mph83%29.95 "HgN/A
3:30 AM63 °FPartly cloudy.2 mph83%29.95 "HgN/A
3:00 AM63 °FPartly cloudy.1 mph83%29.95 "HgN/A
2:30 AM64 °FPartly cloudy.1 mph78%29.95 "HgN/A
2:00 AM66 °FPassing clouds.3 mph73%29.95 "HgN/A
1:30 AM64 °FPassing clouds.5 mph78%29.95 "HgN/A
1:00 AM64 °FPassing clouds.3 mph73%29.95 "HgN/A
12:30 AM66 °FPassing clouds.3 mph73%29.95 "HgN/A
12:00 AM66 °FPassing clouds.6 mph68%29.95 "HgN/A
11:30 PM
Fri, Jul 29
63 °FClear.3 mph77%29.95 "Hg10 mi
11:00 PM64 °FClear.3 mph73%29.95 "Hg10 mi
10:30 PM66 °FSunny.3 mph64%29.95 "Hg10 mi
10:00 PM68 °FSunny.6 mph64%29.95 "Hg10 mi
9:30 PM72 °FSunny.8 mph57%29.95 "Hg10 mi
9:00 PM72 °FPassing clouds.10 mph57%29.92 "HgN/A
8:30 PM75 °FPassing clouds.13 mph50%29.92 "HgN/A
8:00 PM75 °FPassing clouds.14 mph50%29.92 "HgN/A
7:30 PM75 °FPassing clouds.16 mph54%29.92 "HgN/A
7:00 PM77 °FPassing clouds.16 mph54%29.92 "HgN/A
6:30 PM77 °FPassing clouds.16 mph57%29.92 "HgN/A
6:00 PM77 °FPassing clouds.16 mph57%29.92 "HgN/A
5:30 PM77 °FPassing clouds.17 mph57%29.95 "HgN/A
5:00 PM77 °FPassing clouds.14 mph61%29.95 "HgN/A
Weather by CustomWeather, © 2016

See weather overviewHow to use our weather pages